Back to catalog

DGS 2-01

AliveScienceSSO
NORAD 65260·PAYLOAD·🇨🇳 China
This satellite name has not been confirmed by official sources yet.

Launched Aug 19, 2025 from Jiuquan Satellite Launch Center

Loading…

Next Passes (next 24 hours)

TLE

FreshSource: Space-Track

Epoch: Sep 14, 2026, 14:01 UTC

1 65260U 25180B   26257.58452609  .00002918  00000-0  15499-3 0  9997
2 65260  97.5389  24.0740 0014663  20.2482 339.9329 15.16023214 59206

Track DGS 2-01 in real time with AllMySat

Download on the App Store